[[{"header":{"parameterUnit":"m.s-1","parameterCategory":1,"la1":30.2991,"la2":30.254,"lo1":-89.0895,"lo2":-89.0444,"dy":0.0017,"dx":0.0017,"nx":28,"ny":28,"refTime":"2025-03-17T21:00:00:Z","depth":0,"parameterNumber":2,"parameterNumberName":"U-component_of_WINDS"},"data":[0,0,0,0,0,0,0,0,0,0,0,0,0,0,0,0,0,0,0,0,0,0,0,0,0,0,0,0,0,0,0,0,0,0,0,0,0,0,0,0,0,0,0,0,0,0,0,0,0,0,0,0,0,0,0,0,0,0,1.0382,1.0382,0,1.0419,1.0419,1.042,1.0404,1.0403,1.0402,1.0401,1.0437,1.0439,1.0441,0,0,0,0,0,0,0,0,0,0,0,0,0,1.0294,1.0296,1.0382,1.0382,1.0383,1.0419,1.0419,1.042,1.0404,1.0403,1.0402,1.0401,1.0437,1.0439,1.0441,0,0,0,0,0,0,0,0,0,0,0,0,0,1.0332,1.0296,1.0382,1.0379,1.0379,1.0419,1.0419,1.042,1.0404,1.0403,1.0401,1.04,1.0436,1.0438,1.0441,1.0485,0,0,1.0449,1.0451,0,0,0,0,0,0,0,0,1.033,1.0335,1.0379,1.0379,1.038,1.0405,1.0402,1.0442,1.0404,1.0395,1.0401,1.0399,1.0428,1.0431,1.0441,1.0487,1.0488,1.045,1.0451,1.0452,1.0453,0,0,0,0,0,0,0,1.0327,1.0333,1.0397,1.038,1.038,1.0375,1.0379,1.0409,1.0418,1.0395,1.0394,1.0399,1.0427,1.0438,1.0441,1.0489,1.045,1.0452,1.0454,1.0455,1.057,1.0572,0,0,0,0,0,0,1.0325,1.0331,1.0395,1.0398,1.0351,1.0378,1.0382,1.0398,1.0418,1.0419,1.04,1.0398,1.0434,1.0438,1.0443,1.0494,1.0452,1.0455,1.0457,1.0569,1.0571,1.0572,0,0,0,0,0,0,1.0323,1.0331,1.0394,1.0364,1.0372,1.0381,1.0399,1.04,1.0411,1.0421,1.0423,1.041,1.0433,1.0439,1.0474,1.0495,1.0456,1.0459,1.0567,1.0569,1.0571,1.0598,0,0,0,0,0,0,1.0321,1.033,1.0348,1.0365,1.0374,1.0426,1.0401,1.0402,1.0416,1.0413,1.0431,1.0432,1.0433,1.047,1.0477,1.0498,1.0461,1.0565,1.0568,1.0571,1.0595,1.0601,1.0605,0,0,0,0,0,1.0318,1.0354,1.0349,1.0357,1.0396,1.0427,1.0432,1.0432,1.0417,1.0434,1.0441,1.0432,1.0492,1.0474,1.0481,1.0504,1.0564,1.0567,1.0571,1.0593,1.06,1.0605,0,0,0,0,0,0,1.0339,1.0356,1.0351,1.0394,1.0409,1.0424,1.0446,1.044,1.0459,1.0456,1.0455,1.0459,1.0495,1.0503,1.0483,1.0546,1.0525,1.053,1.054,1.0546,1.0551,1.0548,1.0463,0,0,0,0,0,1.0348,1.0373,1.0387,1.0423,1.0431,1.0437,1.0451,1.045,1.0465,1.0472,1.0481,1.0496,1.0518,1.0533,1.0554,1.0596,1.0599,1.0615,1.062,1.0624,1.0628,1.065,1.0656,1.0583,1.0583,1.0583,0,0,1.0369,1.0381,1.0397,1.0428,1.044,1.0464,1.0443,1.047,1.0488,1.0476,1.051,1.0517,1.0533,1.0572,1.0589,1.0579,1.0649,1.0628,1.0631,1.0633,1.0654,1.0661,1.0667,1.0585,1.0585,1.0584,0,0,1.0418,1.0431,1.0462,1.0474,1.0492,1.0495,1.0503,1.0519,1.0523,1.0557,1.0548,1.0569,1.0607,1.0619,1.063,1.0682,1.0673,1.0689,1.0715,1.0736,1.0742,1.0747,1.0764,1.0771,1.0693,1.0693,1.0693,0,1.0441,1.0478,1.0478,1.0506,1.0519,1.0509,1.054,1.0551,1.0575,1.0584,1.0572,1.0619,1.063,1.0671,1.0683,1.0693,1.07,1.0687,1.0741,1.0746,1.0751,1.0768,1.0774,1.0695,1.0694,1.0694,1.0694,0,1.0504,1.0531,1.0553,1.0577,1.0592,1.0622,1.0625,1.064,1.0637,1.0642,1.0676,1.0688,1.071,1.072,1.0717,1.076,1.0753,1.0741,1.072,1.076,1.0775,1.0782,1.0697,1.0696,1.0696,1.0695,0,0,1.0569,1.0591,1.0599,1.0609,1.0628,1.0647,1.0675,1.0698,1.071,1.0727,1.0749,1.0781,1.0771,1.0783,1.0782,1.08,1.0839,1.0786,1.0786,1.0795,1.0885,1.0892,1.09,1.0833,1.0835,1.0836,1.0883,0,1.0619,1.0668,1.0668,1.0714,1.0737,1.0727,1.0751,1.0764,1.0769,1.0788,1.0793,1.0815,1.08,1.0807,1.0825,1.083,1.0857,1.0827,1.0853,1.0854,1.0849,1.0908,1.0917,1.0961,1.0889,1.089,1.0891,0,1.0684,1.0702,1.075,1.0764,1.0773,1.0795,1.0815,1.0834,1.0848,1.085,1.0863,1.0859,1.0886,1.0864,1.09,1.088,1.0891,1.0895,1.0897,1.0899,1.0874,1.0911,1.0975,1.0982,1.0901,1.09,1.0899,0,1.0724,1.0761,1.0794,1.0803,1.082,1.0836,1.0843,1.0856,1.0869,1.0886,1.0894,1.0914,1.0925,1.094,1.094,1.0924,1.0976,1.0955,1.0977,1.0977,1.0988,1.0988,1.1054,1.0996,1.0996,1.0996,1.0996,0,1.078,1.0809,1.0812,1.0833,1.0865,1.0864,1.0895,1.0901,1.0913,1.0933,1.0925,1.0944,1.0944,1.0963,1.0963,1.0992,1.0997,1.0999,1.0998,1.0999,1.0999,1.1006,1.1002,1.0998,1.0998,1.0997,1.0997,0,1.0831,1.0834,1.0869,1.0883,1.0887,1.0909,1.092,1.0939,1.0942,1.0968,1.0974,1.0979,1.1001,1.1002,1.1028,1.1028,1.1063,1.1059,1.1058,1.1057,1.1079,1.1077,1.1152,1.1161,1.1098,1.1099,1.1099,0,1.0865,1.0888,1.0903,1.0916,1.0925,1.0947,1.0959,1.0959,1.0973,1.099,1.1006,1.1027,1.1044,1.1079,1.1084,1.1103,1.11,1.1125,1.1102,1.1102,1.1099,1.1097,1.1099,1.1129,1.113,1.113,1.1131,0,1.0926,1.0927,1.0946,1.0966,1.0982,1.0997,1.1011,1.1022,1.1023,1.1039,1.1061,1.1074,1.11,1.112,1.1138,1.1145,1.1138,1.1138,1.1144,1.1144,1.1142,1.1142,1.1069,1.1136,1.1135,1.1135,1.1135,1.1134,1.0969,1.0988,1.1001,1.1023,1.1034,1.1047,1.1065,1.107,1.1089,1.111,1.1108,1.1132,1.1144,1.1168,1.1176,1.1195,1.1186,1.1195,1.1197,1.1199,1.1201,1.114,1.1198,1.1198,1.1198,1.1198,1.1198,0,1.1029,1.1037,1.1056,1.1077,1.1093,1.1085,1.11,1.1114,1.1136,1.1148,1.1165,1.1189,1.1209,1.1216,1.1234,1.1248,1.1245,1.1252,1.1251,1.1252,1.1208,1.1201,1.1255,1.1255,1.1255,1.1255,1.1255,1.1255,1.1061,1.1092,1.1094,1.1129,1.1137,1.1161,1.117,1.1182,1.1191,1.122,1.1236,1.124,1.125,1.1269,1.1286,1.1288,1.1294,1.1303,1.1303,1.1262,1.1256,1.125,1.1243,1.1305,1.1305,1.1346,1.1346,1.1347]},{"header":{"parameterUnit":"m.s-1","parameterCategory":1,"la1":30.2991,"la2":30.254,"lo1":-89.0895,"lo2":-89.0444,"dy":0.0017,"dx":0.0017,"nx":28,"ny":28,"refTime":"2025-03-17T21:00:00:Z","depth":0,"parameterNumber":3,"parameterNumberName":"V-component_of_WINDS"},"data":[0,0,0,0,0,0,0,0,0,0,0,0,0,0,0,0,0,0,0,0,0,0,0,0,0,0,0,0,0,0,0,0,0,0,0,0,0,0,0,0,0,0,0,0,0,0,0,0,0,0,0,0,0,0,0,0,0,0,6.0883,6.0884,0,6.0948,6.0949,6.095,6.0898,6.0896,6.0894,6.0891,6.0955,6.0959,6.0962,0,0,0,0,0,0,0,0,0,0,0,0,0,6.071,6.0713,6.0883,6.0884,6.0885,6.0948,6.0949,6.095,6.0898,6.0896,6.0893,6.089,6.0954,6.0958,6.0963,0,0,0,0,0,0,0,0,0,0,0,0,0,6.0781,6.0714,6.0883,6.0867,6.0866,6.0948,6.0949,6.095,6.0899,6.0896,6.0892,6.0889,6.0952,6.0958,6.0963,6.1064,0,0,6.098,6.0983,0,0,0,0,0,0,0,0,6.0777,6.0787,6.0868,6.0868,6.0867,6.0912,6.0911,6.0988,6.09,6.0886,6.0891,6.0888,6.0943,6.0949,6.0968,6.1067,6.1069,6.0981,6.0984,6.0987,6.0988,0,0,0,0,0,0,0,6.0772,6.0784,6.0909,6.0869,6.0869,6.0855,6.0861,6.0925,6.0932,6.0887,6.0884,6.0892,6.0942,6.0963,6.097,6.107,6.0981,6.0986,6.0989,6.0991,6.1253,6.1256,0,0,0,0,0,0,6.0769,6.078,6.0907,6.0911,6.0813,6.0861,6.0868,6.0901,6.0931,6.0933,6.0895,6.089,6.0955,6.0963,6.0972,6.109,6.0987,6.0992,6.0995,6.1249,6.1253,6.1257,0,0,0,0,0,0,6.0766,6.0781,6.0904,6.0845,6.0859,6.0867,6.0904,6.0904,6.0925,6.0937,6.0938,6.0916,6.0953,6.0964,6.1041,6.1092,6.0994,6.0999,6.1245,6.125,6.1255,6.1329,0,0,0,0,0,0,6.0761,6.078,6.0819,6.0846,6.0863,6.0974,6.0908,6.0907,6.0935,6.0929,6.0957,6.0958,6.0951,6.1033,6.1047,6.1098,6.1004,6.124,6.1247,6.1254,6.1322,6.1337,6.1349,0,0,0,0,0,6.0755,6.0837,6.0822,6.0837,6.0912,6.0977,6.0986,6.0977,6.0939,6.0978,6.0986,6.0957,6.1084,6.1041,6.1056,6.111,6.1237,6.1245,6.1253,6.1316,6.1334,6.1348,0,0,0,0,0,0,6.0815,6.084,6.0823,6.0917,6.0945,6.0968,6.1017,6.0996,6.1035,6.1027,6.1013,6.102,6.1102,6.1113,6.1065,6.1208,6.1154,6.1166,6.1197,6.1214,6.1227,6.1222,6.1009,0,0,0,0,0,6.084,6.0892,6.091,6.0991,6.1006,6.1009,6.1037,6.1028,6.1056,6.1067,6.1081,6.1108,6.1154,6.1185,6.1228,6.1324,6.1328,6.1368,6.1381,6.1392,6.1402,6.1452,6.1469,6.1284,6.1284,6.1283,0,0,6.089,6.091,6.0944,6.1003,6.1024,6.1077,6.102,6.1078,6.1116,6.1076,6.115,6.1161,6.119,6.1277,6.1316,6.129,6.1454,6.1402,6.1411,6.1415,6.1462,6.148,6.1495,6.1289,6.1288,6.1287,0,0,6.1009,6.103,6.1099,6.1122,6.1154,6.1156,6.1172,6.1198,6.1204,6.1278,6.1249,6.1293,6.1373,6.1395,6.1417,6.1544,6.1518,6.1558,6.1626,6.1676,6.169,6.1703,6.1747,6.1763,6.1568,6.1568,6.1568,0,6.1068,6.1147,6.1137,6.1198,6.1224,6.1191,6.126,6.1281,6.1326,6.1344,6.1314,6.1413,6.143,6.1522,6.1552,6.1571,6.1589,6.1554,6.1689,6.1702,6.1714,6.1756,6.1772,6.1572,6.1572,6.1571,6.1571,0,6.1217,6.1272,6.1324,6.1368,6.1401,6.1465,6.1463,6.1497,6.1485,6.1489,6.1564,6.1584,6.163,6.1651,6.1639,6.174,6.1723,6.1691,6.1637,6.1736,6.1775,6.1791,6.1579,6.1577,6.1576,6.1575,0,0,6.1376,6.1414,6.1433,6.1453,6.1486,6.1527,6.159,6.1635,6.1664,6.1695,6.1746,6.1814,6.1785,6.181,6.18,6.1844,6.1941,6.1807,6.1807,6.183,6.2052,6.2075,6.2094,6.1925,6.1928,6.193,6.2049,0,6.1496,6.1605,6.1598,6.17,6.175,6.1719,6.1773,6.1798,6.1803,6.1845,6.1851,6.1899,6.1857,6.1872,6.1914,6.1921,6.1985,6.1912,6.197,6.1973,6.1963,6.2114,6.2139,6.225,6.2064,6.2067,6.2069,0,6.1651,6.1688,6.1796,6.182,6.1841,6.189,6.1931,6.1972,6.1999,6.2,6.2027,6.201,6.2071,6.2016,6.2099,6.2049,6.2073,6.208,6.2084,6.2088,6.2026,6.2122,6.2286,6.2302,6.2093,6.2091,6.2089,0,6.1755,6.1832,6.1906,6.1924,6.1955,6.199,6.2004,6.2028,6.2056,6.2091,6.2108,6.215,6.2173,6.2205,6.2199,6.2159,6.2283,6.2228,6.2284,6.2285,6.2311,6.231,6.248,6.2328,6.2328,6.2327,6.2327,0,6.1889,6.1956,6.1953,6.1999,6.2072,6.2062,6.2135,6.2145,6.2167,6.2212,6.2188,6.2231,6.2221,6.2263,6.2259,6.2328,6.2338,6.2339,6.2337,6.2341,6.2341,6.2356,6.2348,6.2332,6.2331,6.233,6.2329,0,6.2018,6.2019,6.2098,6.212,6.2127,6.2181,6.2199,6.2241,6.2245,6.2303,6.2316,6.232,6.2369,6.2367,6.2422,6.2418,6.2503,6.2492,6.2494,6.2491,6.2548,6.2542,6.2734,6.2758,6.259,6.2592,6.2593,0,6.2103,6.2154,6.2182,6.2211,6.2228,6.2276,6.2304,6.2295,6.2325,6.236,6.2398,6.2444,6.2481,6.256,6.2568,6.2609,6.2599,6.2663,6.2605,6.2607,6.2599,6.2595,6.26,6.2674,6.2676,6.2678,6.2679,0,6.2254,6.2252,6.2294,6.2337,6.2371,6.2404,6.2434,6.2459,6.2453,6.2488,6.2538,6.2566,6.2623,6.2669,6.2708,6.2721,6.2699,6.2697,6.2712,6.2717,6.2715,6.2716,6.2524,6.2693,6.2691,6.269,6.269,6.2689,6.2363,6.2406,6.2433,6.248,6.2502,6.253,6.2571,6.2579,6.2621,6.2666,6.2658,6.2714,6.2739,6.279,6.2807,6.2849,6.2826,6.2848,6.2854,6.2859,6.2865,6.2709,6.2856,6.2856,6.2855,6.2855,6.2855,0,6.2512,6.2527,6.2571,6.2614,6.2651,6.2627,6.2659,6.2691,6.2741,6.2766,6.2803,6.2859,6.2904,6.2915,6.2957,6.2989,6.298,6.3,6.2997,6.3,6.2884,6.2866,6.3007,6.3007,6.3007,6.3007,6.3007,6.3007,6.2594,6.2665,6.2666,6.2748,6.2762,6.2817,6.2837,6.2862,6.2882,6.2947,6.2984,6.2991,6.301,6.3054,6.3093,6.3095,6.3111,6.3136,6.3134,6.3024,6.3009,6.2994,6.2978,6.314,6.314,6.3247,6.3248,6.3248]}]]